Theta_e
308 309 310 311 311 311 311 312 312 312 312 312 312 312 313 314 314 315 316 316 316 317 317 317 317 318 317 317 317 317 317 317 317 317 317 318 319 319 320 322 323 324 326 327 327 328 328 328 328 328 327 327 328 328 328 329 328 327 326 326 327 327 327 326 325 325 325 325 325
307 307 308 310 311 311 310 310 311 311 311 311 312 312 312 313 314 314 314 314 315 315 315 316 315 315 315 315 315 315 315 314 314 315 315 315 316 316 317 317 318 319 321 323 324 326 327 327 327 327 326 327 327 327 327 328 327 327 326 326 326 326 326 324 325 325 325 325 326
306 307 307 307 308 308 309 309 310 309 309 309 311 311 312 312 313 313 313 313 313 313 313 314 314 313 313 313 313 313 313 313 313 313 314 314 314 314 315 315 315 316 316 318 319 321 323 325 326 326 326 326 326 326 326 326 327 327 326 326 326 325 324 324 325 325 326 326 326
306 306 306 307 307 307 307 309 308 308 308 309 309 310 310 311 311 311 311 310 310 311 311 312 312 312 312 312 311 311 312 312 312 312 312 313 313 313 313 313 313 314 314 314 315 316 317 319 321 323 324 325 324 325 325 325 325 325 325 325 325 325 325 324 325 325 325 325 325
306 306 306 306 306 306 307 307 307 307 308 309 309 309 310 309 309 309 309 310 310 310 310 310 310 311 311 310 310 310 310 310 311 311 311 311 311 312 312 312 312 312 313 313 313 313 314 314 316 318 320 321 322 323 324 324 324 324 324 324 324 324 324 325 326 325 324 324 324
307 307 306 306 306 306 307 307 307 307 308 309 308 308 309 310 310 310 310 310 310 309 309 309 310 310 311 310 310 310 310 310 310 311 310 310 311 311 311 311 311 311 312 312 313 313 313 313 314 314 316 317 318 319 321 322 323 323 323 323 324 324 324 324 324 324 324 323 323
307 307 306 306 306 306 307 307 308 308 308 308 308 307 308 309 309 309 309 309 309 309 309 310 310 310 310 310 310 310 310 310 310 310 309 310 310 310 310 310 310 311 311 311 312 312 312 313 313 313 314 314 315 316 316 317 319 320 321 322 322 323 323 324 324 324 323 323 322
308 307 306 306 306 307 307 307 308 308 309 309 308 308 307 308 308 308 309 309 309 309 310 311 310 309 309 310 309 309 309 309 309 309 309 310 309 310 310 310 310 310 310 311 311 311 311 312 312 313 313 313 314 314 314 314 315 316 317 318 319 320 322 322 323 323 322 322 322
309 308 306 306 307 307 307 307 308 308 308 308 308 308 308 308 308 308 309 309 309 309 309 310 309 309 309 308 308 308 308 309 308 309 309 309 309 309 309 309 309 310 310 310 310 310 311 311 312 312 313 313 313 313 314 314 314 314 314 315 316 317 318 320 320 321 321 322 321
308 308 307 307 307 307 308 308 308 307 307 307 307 307 308 308 308 308 308 309 309 309 308 308 308 308 307 307 307 307 307 308 307 308 308 308 308 308 309 309 309 309 309 310 310 310 310 311 311 312 312 312 312 312 312 313 313 313 313 314 315 315 315 316 317 318 318 319 319
307 307 307 307 307 307 308 307 307 307 307 307 307 306 307 307 307 307 308 308 307 307 307 307 306 306 306 306 306 306 306 306 307 307 307 307 307 307 308 308 308 308 309 309 309 310 310 310 310 310 310 311 311 311 312 311 312 312 312 313 313 313 313 314 315 315 316 316 316
307 306 306 306 306 306 306 306 307 307 306 306 306 306 306 306 306 306 306 306 305 305 305 305 305 305 305 305 305 305 306 305 305 306 305 306 306 306 306 307 307 307 307 308 309 309 309 310 309 309 309 310 310 311 311 311 311 311 311 312 312 312 313 313 313 314 315 315 315
306 306 305 306 306 306 305 305 306 306 305 305 305 305 305 305 305 305 305 304 304 304 305 305 304 304 304 304 305 305 305 305 304 305 305 305 305 305 305 306 306 306 306 307 308 308 308 309 309 309 309 309 310 310 310 310 310 310 310 311 311 311 312 312 313 313 314 314 314
305 305 305 305 305 305 305 305 305 305 304 304 304 304 304 304 305 305 304 304 304 304 304 304 304 304 304 304 304 304 304 304 304 304 304 304 304 304 304 305 305 305 306 306 307 307 307 307 308 308 308 308 309 309 310 310 310 309 310 310 310 311 311 312 312 313 313 313 313
305 305 305 304 304 304 304 304 305 304 304 304 304 304 304 304 304 304 304 303 303 303 303 303 303 304 303 303 303 303 303 303 303 303 303 303 303 303 304 304 304 305 305 306 306 306 307 307 307 307 308 308 308 309 309 309 310 310 310 310 310 311 311 312 312 313 313 313 313
304 304 304 304 304 304 304 303 304 304 303 303 303 303 303 304 304 304 303 303 303 303 303 302 303 303 303 303 303 302 302 302 302 302 302 302 303 303 303 303 304 304 305 305 305 306 306 307 307 307 307 308 308 309 309 309 310 310 311 311 311 311 312 312 313 313 313 313 313
304 304 304 303 303 303 303 303 303 303 303 303 303 303 303 303 303 303 303 303 302 302 302 302 302 302 302 302 302 302 302 302 302 302 302 302 302 302 303 303 303 304 304 305 305 306 306 306 307 307 307 308 308 309 309 310 311 311 312 312 312 312 313 313 313 313 313 313 313
303 303 303 303 302 302 302 302 302 302 302 302 302 302 302 302 302 302 302 302 302 302 301 301 302 302 302 301 301 302 302 302 301 301 302 302 302 302 303 303 303 304 304 305 305 305 305 306 306 307 307 308 308 309 309 309 310 311 311 311 312 312 312 312 312 312 312 311 311
303 302 302 301 301 301 301 301 301 301 301 301 301 301 301 301 301 301 301 301 301 301 301 301 301 301 301 301 301 301 302 302 301 301 301 302 302 302 303 303 303 304 304 304 305 305 305 306 306 306 307 307 308 308 308 308 309 309 309 309 310 310 310 310 310 310 310 310 310
301 301 300 300 300 300 300 300 300 300 300 301 301 301 301 300 301 301 301 300 301 301 300 300 300 300 300 301 300 301 301 302 301 301 301 302 302 302 303 303 303 303 304 304 304 305 305 305 306 306 306 306 306 306 306 307 307 307 307 308 308 308 308 308 308 308 308 308 308
300 299 299 299 299 299 299 299 299 299 299 299 300 300 300 300 300 300 300 300 300 300 300 300 300 300 300 300 300 300 301 301 301 301 301 302 302 302 302 303 303 303 303 303 304 304 304 305 305 305 305 305 305 305 305 305 305 305 306 306 307 307 307 307 307 307 307 307 307
298 298 298 298 298 298 298 298 298 298 298 298 299 299 299 299 299 299 299 299 299 299 299 299 299 299 299 299 299 300 300 301 301 301 301 301 301 302 302 302 302 302 302 302 303 303 303 304 304 304 303 303 303 303 303 304 304 304 305 305 305 306 306 306 306 306 306 306 306
297 297 297 297 297 297 297 297 297 297 297 297 297 297 298 298 298 298 298 298 298 298 298 298 298 298 298 299 299 299 300 300 301 301 301 301 301 301 301 301 301 301 301 302 302 302 302 303 302 302 302 302 302 302 303 303 303 304 304 304 304 304 305 305 305 305 305 306 306
296 296 296 296 295 295 295 295 295 295 295 296 296 296 296 296 297 297 297 297 297 297 297 297 297 297 298 298 299 299 299 299 300 300 300 300 300 300 300 300 300 300 300 301 302 302 303 302 302 301 301 302 302 302 302 303 303 303 303 303 303 304 304 304 304 305 305 305 305
295 294 294 294 294 294 294 294 294 294 294 294 295 295 295 295 295 295 295 295 295 295 295 295 296 296 297 297 298 299 299 299 299 299 299 299 299 299 299 299 300 300 300 301 302 303 303 303 303 302 301 301 302 302 302 302 303 303 303 303 303 303 303 304 304 304 305 305 305
293 293 293 293 293 293 293 293 293 293 293 293 293 294 294 294 294 294 294 294 294 294 294 294 295 295 296 297 297 298 298 299 299 299 298 298 298 298 298 299 299 299 300 301 302 303 303 304 304 303 302 301 301 302 302 302 302 302 302 302 303 303 303 303 304 304 304 304 305
292 292 292 292 292 292 292 292 292 292 292 292 292 292 293 293 293 293 293 293 293 293 293 293 294 295 296 296 296 296 297 298 298 298 298 297 297 297 297 298 298 298 299 300 302 303 303 304 304 304 303 302 301 301 301 302 302 302 302 303 303 303 303 303 303 303 303 304 304
291 291 291 291 291 291 291 291 291 291 291 291 291 292 292 292 292 292 292 292 292 292 292 293 293 294 295 295 295 295 296 296 297 297 297 297 296 296 296 297 297 298 299 301 302 303 303 304 304 304 304 303 302 302 301 301 302 302 303 303 303 303 303 303 303 303 302 302 302
291 291 291 290 290 290 290 290 291 290 291 291 291 291 291 291 291 291 291 291 291 291 292 292 293 294 294 294 294 295 295 295 296 296 296 295 295 295 296 296 296 297 299 301 302 302 303 303 303 303 304 304 302 302 302 302 302 303 303 303 303 303 303 303 302 302 302 301 301
290 290 290 289 289 290 290 290 290 290 290 291 290 290 290 290 290 290 290 290 290 291 291 292 292 292 292 293 293 294 294 294 294 294 294 294 294 294 295 295 295 296 298 300 301 302 302 302 302 303 303 304 302 302 302 303 303 303 303 303 303 302 302 302 301 301 300 300 300
289 289 289 289 289 289 289 289 289 289 289 290 290 289 289 289 289 289 290 290 290 291 291 292 291 291 292 292 293 293 293 293 293 293 293 293 293 294 294 294 294 295 297 300 301 301 302 302 302 302 303 303 302 302 302 303 303 303 303 302 302 301 301 300 300 299 299 299 299
288 288 288 288 288 288 288 288 289 289 289 289 289 289 288 288 289 289 289 290 290 290 290 291 291 291 291 291 292 292 292 292 292 292 292 292 293 293 293 293 294 295 297 299 300 301 301 301 302 302 302 303 302 302 302 303 302 302 301 301 300 300 299 299 299 298 298 298 298
287 287 287 287 287 287 288 288 288 288 288 288 288 288 288 288 288 289 289 289 290 290 290 290 290 290 290 290 290 290 290 291 291 291 292 292 292 292 292 293 293 295 297 299 300 300 301 301 301 301 302 303 302 302 301 301 301 300 300 299 299 298 298 297 297 297 297 297 298
286 287 286 286 287 287 287 287 287 287 287 287 287 287 287 287 288 288 288 289 289 289 289 290 290 290 289 289 289 289 290 290 290 290 290 290 291 291 291 292 293 294 297 298 299 300 300 300 301 301 302 302 302 301 300 299 298 298 298 297 297 297 297 297 297 296 297 297 297
286 286 286 286 286 286 286 286 286 286 286 286 286 286 287 287 287 287 288 289 289 289 289 289 289 289 289 289 289 289 289 289 289 289 289 289 290 290 290 290 291 294 296 298 299 299 300 300 300 301 301 301 300 299 298 297 296 296 296 296 296 296 296 296 296 296 296 296 296
285 285 285 285 285 285 285 285 285 285 285 285 285 286 286 286 287 287 288 288 288 288 288 288 288 288 288 288 288 288 288 288 288 288 288 289 289 289 289 289 290 292 295 297 298 299 299 300 300 300 301 300 299 297 296 296 295 295 295 295 295 295 295 295 295 295 295 294 294
285 285 285 285 285 285 285 285 285 285 285 285 285 285 285 286 286 287 287 288 287 287 287 287 287 287 287 287 287 287 288 288 287 287 288 288 288 288 288 288 289 291 294 296 298 298 299 299 300 300 300 299 297 296 295 295 295 295 294 294 294 294 294 294 294 294 293 293 293
285 285 284 284 284 284 285 285 284 284 284 284 285 285 285 285 285 286 287 287 286 286 286 286 286 286 286 287 287 287 287 287 287 287 287 287 287 288 288 288 289 290 293 295 297 298 299 299 300 300 300 298 296 295 295 294 294 294 294 294 294 293 293 293 293 293 292 292 292
284 284 284 284 284 284 284 284 284 284 284 284 284 284 285 285 285 286 286 287 286 286 286 286 286 286 286 287 286 286 286 286 287 287 287 287 287 288 288 288 289 290 292 295 296 298 298 299 300 300 300 298 296 295 295 294 293 293 293 293 293 292 292 292 292 292 291 291 293
284 284 284 284 284 284 284 283 283 284 284 284 284 284 284 284 285 286 286 286 286 286 285 285 285 286 286 287 286 286 285 286 286 286 287 287 287 288 289 289 289 290 292 294 296 297 298 299 300 300 300 298 296 295 295 294 293 292 292 292 292 291 291 291 291 291 290 290 292
284 284 284 283 283 283 283 283 283 283 284 284 283 284 284 285 285 285 285 285 285 285 285 285 285 285 285 286 286 285 285 285 285 286 286 287 287 288 289 288 289 289 290 292 294 297 298 299 299 299 299 297 296 295 294 294 293 292 291 291 291 291 290 290 290 290 290 290 290
Wind_Speed
4 3 3 3 3 3 3 3 4 4 4 4 5 5 5 5 5 5 5 4 4 5 5 5 5 5 6 7 8 8 8 9 9 10 10 10 9 9 9 9 9 9 9 9 9 8 8 8 7 6 5 6 7 8 8 8 9 10 11 11 11 12 14 16 15 16 16 17 15
5 4 4 4 3 3 3 4 4 4 5 4 5 5 5 5 5 5 5 5 5 5 5 5 5 6 7 8 8 8 9 9 10 10 10 10 10 10 9 9 9 9 9 9 8 7 7 7 7 6 5 6 6 7 8 8 9 10 11 13 12 12 12 13 14 16 17 17 16
6 6 5 5 5 4 4 4 5 5 5 5 5 5 5 4 4 4 5 5 5 5 5 5 6 6 7 8 8 8 9 9 10 10 10 10 10 11 10 10 10 10 9 8 8 7 7 7 6 6 6 6 7 7 8 9 9 9 11 13 10 9 9 10 11 13 13 13 14
7 7 6 6 6 5 5 5 5 6 6 5 4 4 5 4 4 4 5 5 5 5 5 5 6 6 7 8 8 9 9 9 10 10 10 10 10 11 11 11 11 11 11 10 9 9 8 7 5 5 5 7 8 8 8 8 10 10 9 8 6 6 7 9 10 10 10 9 11
8 7 6 6 5 5 5 5 6 6 5 5 5 5 5 4 4 5 5 6 6 6 6 6 6 6 7 8 9 9 9 9 9 9 9 9 10 10 11 11 12 12 12 11 11 11 10 9 6 5 5 6 7 7 8 10 10 9 7 5 5 6 7 8 8 8 8 9 9
7 7 6 5 5 5 5 5 6 5 5 5 6 6 6 6 6 6 6 6 6 6 7 7 6 7 8 9 9 9 9 9 9 9 9 10 10 10 11 11 11 11 11 11 12 12 11 10 7 6 5 6 6 7 9 10 9 8 7 6 6 7 8 8 7 7 7 9 10
7 7 7 6 6 5 5 6 6 6 6 6 7 8 8 7 7 8 8 7 7 7 7 7 7 8 9 9 9 9 9 9 9 9 10 10 10 11 11 11 11 11 11 12 12 12 11 10 8 7 7 7 7 9 10 10 8 8 7 8 7 7 7 8 7 7 8 11 13
7 7 6 6 6 7 7 7 7 7 7 7 7 8 9 9 9 9 8 7 7 7 6 7 8 9 9 9 9 9 10 10 10 10 10 10 11 11 11 11 12 12 12 12 12 12 11 9 8 8 8 7 7 9 10 12 12 11 11 11 10 8 7 7 7 8 9 12 13
7 7 6 6 7 7 8 8 8 8 7 7 8 9 9 9 9 9 9 7 7 7 7 7 9 9 10 10 10 10 10 10 11 11 11 11 12 12 12 12 12 12 12 11 12 12 12 10 8 8 8 8 8 9 11 13 14 14 14 12 11 10 9 8 8 9 9 11 12
7 7 7 7 8 8 8 8 8 8 7 8 9 9 9 9 9 9 8 7 7 8 8 8 9 10 10 10 10 10 10 10 11 11 12 12 12 12 12 12 12 12 12 12 11 12 11 10 10 10 10 10 11 12 13 14 15 15 14 11 11 12 13 12 12 12 12 11 13
7 7 7 7 8 8 8 8 8 7 7 8 9 9 9 9 9 8 8 8 8 9 9 9 10 10 10 10 10 10 11 11 11 12 12 13 13 13 13 13 13 13 13 13 12 11 11 10 11 12 12 12 12 13 14 14 14 15 15 13 14 15 15 15 14 13 13 12 13
7 7 7 7 8 8 8 8 7 7 7 8 9 9 9 9 9 8 9 9 9 10 10 9 10 10 10 10 10 11 11 12 12 12 12 13 13 13 13 13 13 14 14 14 12 11 11 11 12 13 14 14 13 12 13 14 15 15 15 15 15 15 15 16 15 14 13 12 13
7 7 7 8 8 8 8 8 7 7 7 8 9 9 8 8 9 9 9 9 10 10 9 9 9 9 10 10 10 11 11 12 12 12 12 13 13 13 14 14 14 14 14 14 13 12 12 12 13 14 15 15 13 13 14 15 15 15 16 16 16 16 16 16 16 15 14 14 14
8 7 8 8 8 8 8 8 7 7 8 8 9 9 9 9 9 9 9 10 10 10 10 10 9 9 10 11 11 12 12 12 12 13 13 13 13 13 14 14 14 15 14 14 14 14 14 14 14 14 15 15 15 15 15 15 15 15 15 16 16 16 16 16 16 15 15 15 15
8 8 8 8 8 8 8 8 7 7 8 9 9 9 9 9 9 9 9 10 10 10 10 10 10 10 11 11 12 12 12 12 12 12 13 13 13 13 14 14 15 15 15 14 14 14 14 14 15 15 15 15 15 15 15 14 14 14 14 14 15 15 15 15 15 14 14 15 15
8 8 8 8 9 8 8 8 7 8 8 9 9 9 9 9 9 10 10 11 11 10 11 11 11 12 12 12 12 12 12 12 12 12 13 13 14 14 14 15 15 15 15 15 15 14 14 14 14 14 14 14 14 14 14 13 13 13 13 13 13 13 13 14 14 14 14 14 14
9 9 9 9 9 9 9 9 8 8 9 10 10 10 10 10 10 10 11 11 11 11 12 13 12 12 12 13 12 12 12 12 12 13 13 14 14 15 15 15 15 15 15 15 15 15 15 14 14 14 14 14 13 13 12 12 12 12 13 13 13 13 13 13 13 13 13 14 14
9 9 9 9 10 10 10 10 10 10 10 11 11 11 11 11 11 11 12 12 12 13 14 14 14 13 13 14 13 12 12 13 13 13 13 14 15 15 15 15 15 15 15 14 15 15 15 15 14 13 13 12 12 11 11 12 12 13 13 13 13 13 13 13 13 12 12 13 13
9 9 10 10 10 10 11 11 11 12 12 12 12 12 12 13 13 13 13 13 14 14 15 15 15 14 14 14 14 13 13 13 14 14 15 15 15 15 15 15 15 15 15 14 14 14 14 14 14 13 12 12 12 12 12 12 12 12 13 13 13 12 12 12 12 12 12 13 13
9 10 10 10 10 11 12 12 12 12 12 12 13 13 14 14 14 14 15 15 15 15 15 16 16 15 15 15 15 15 14 13 14 15 16 16 16 16 16 16 16 15 15 15 14 14 14 13 13 13 13 13 13 13 13 13 13 13 12 12 11 11 11 11 11 12 12 12 13
9 10 10 10 11 12 12 12 13 13 13 13 14 14 15 15 15 15 15 16 16 16 16 16 16 16 16 16 16 16 15 14 15 15 16 16 16 16 16 16 16 16 15 15 14 14 13 13 13 13 14 14 15 15 14 14 13 13 13 12 11 11 11 11 11 12 12 12 13
9 10 10 10 11 12 12 13 13 13 13 14 14 14 15 15 15 15 15 15 16 16 16 16 16 16 16 16 16 16 16 15 15 15 16 16 16 16 16 16 16 16 16 15 14 14 13 13 14 15 15 15 15 15 15 14 14 14 13 13 13 12 12 12 11 12 12 12 12
9 10 10 10 11 12 13 13 13 13 14 14 14 14 15 15 15 15 15 15 15 16 16 15 15 16 16 16 16 16 16 16 16 16 16 16 16 16 16 16 16 16 16 14 13 13 13 14 15 16 16 16 16 16 15 15 14 14 14 14 14 13 13 12 12 12 12 12 12
10 10 10 10 12 12 13 13 13 13 13 14 14 14 14 14 15 15 15 15 15 16 16 15 15 16 16 16 16 16 16 16 16 16 16 16 16 16 16 15 15 15 14 12 13 14 14 14 15 15 16 16 16 15 15 15 14 14 14 14 14 14 13 13 12 12 12 12 12
10 10 11 11 12 12 12 12 13 13 13 13 13 14 14 14 14 15 15 15 15 16 16 16 16 16 15 15 15 15 15 15 16 16 17 16 16 16 15 14 14 13 12 12 15 18 20 19 17 16 15 15 15 15 15 14 14 14 14 13 13 13 13 13 13 12 12 12 12
10 11 11 11 12 12 12 12 12 12 13 13 13 14 14 14 14 14 15 15 15 16 16 16 16 15 15 14 15 15 15 14 15 15 16 16 16 16 15 13 13 11 11 13 18 21 23 24 23 20 17 15 15 14 14 14 14 14 13 13 12 12 12 13 13 13 13 12 12
10 11 11 11 11 11 11 11 12 12 12 13 13 13 14 14 14 14 15 15 15 16 16 15 15 15 14 13 14 15 15 14 14 15 15 15 15 15 15 13 12 11 12 15 20 22 24 25 25 24 21 16 15 14 13 13 13 13 12 12 11 11 11 12 12 13 13 13 13
10 10 11 11 11 11 11 11 12 12 12 13 13 13 14 14 14 14 14 15 15 15 15 14 14 13 12 12 14 15 16 15 14 14 14 15 15 15 14 13 12 12 14 18 21 23 24 24 25 25 23 19 15 13 13 13 12 12 11 10 10 11 11 11 11 12 13 14 14
10 11 11 11 11 11 11 12 12 12 13 13 13 13 14 14 14 14 14 15 16 15 14 13 12 12 12 13 14 15 15 15 14 14 14 15 15 15 15 14 14 15 17 20 22 23 24 24 24 24 23 21 15 12 11 11 10 10 9 9 9 10 10 10 11 11 12 13 14
10 11 11 11 12 12 12 12 12 12 12 12 13 13 14 14 14 14 14 15 15 15 14 13 13 13 14 15 15 15 14 14 14 14 15 16 16 16 16 15 15 15 17 20 22 23 23 24 24 24 23 21 17 13 10 9 9 9 9 9 9 10 11 11 11 12 12 12 14
10 11 11 11 12 12 12 12 12 12 12 12 13 13 14 14 14 14 14 14 14 14 14 14 15 16 16 15 14 14 14 14 14 15 15 16 17 17 16 16 16 16 18 21 22 23 24 24 24 23 22 21 16 12 9 9 9 9 9 9 10 10 11 11 11 12 13 13 14
10 11 11 12 12 12 12 12 12 13 13 13 13 13 13 13 13 13 13 13 14 15 15 15 16 16 16 15 15 15 15 16 16 16 16 16 17 17 17 17 17 17 18 21 23 24 24 24 24 24 22 20 15 11 9 9 8 8 8 9 10 11 11 10 11 12 13 13 14
10 11 11 11 12 12 12 12 12 13 13 13 13 13 13 13 13 13 14 14 14 14 15 15 15 15 15 15 15 16 16 16 17 18 18 18 17 17 17 17 16 17 19 22 24 24 25 25 25 24 22 19 14 10 8 8 7 7 8 9 9 10 11 11 11 11 12 13 13
11 11 11 11 12 12 12 12 12 13 13 13 13 13 13 13 14 14 14 14 13 13 13 13 13 13 13 14 15 16 16 16 17 17 18 18 18 18 18 16 14 16 20 24 25 25 25 25 25 24 22 18 12 9 8 8 7 7 8 9 9 10 10 11 11 11 12 13 13
11 11 11 12 12 12 13 13 13 13 13 14 14 14 13 13 14 14 14 14 14 12 11 11 11 12 13 13 14 15 17 17 17 18 18 18 18 19 19 18 17 19 22 25 25 25 25 25 25 23 20 15 10 8 7 8 8 8 8 9 10 10 10 10 10 11 11 12 13
10 11 12 12 12 13 13 13 13 13 14 14 14 14 14 14 13 13 13 14 13 12 12 12 12 13 13 14 14 15 16 17 18 18 19 19 19 20 20 19 19 20 23 25 25 25 25 25 24 23 19 13 9 7 7 7 7 8 8 9 10 10 10 10 10 11 12 12 13
10 11 12 12 13 13 13 13 14 14 14 14 14 14 14 14 13 12 12 12 12 12 12 12 13 14 14 14 15 15 15 16 17 18 19 19 19 20 20 20 20 20 22 23 24 24 24 24 23 21 17 11 8 7 7 7 7 7 8 9 9 10 10 10 10 11 12 13 13
11 11 12 13 13 13 13 13 13 14 14 14 13 13 13 13 12 11 11 11 11 12 13 13 14 14 14 15 15 16 16 17 17 18 19 19 19 19 20 20 20 19 20 21 23 23 23 23 22 20 16 11 9 8 7 7 7 7 8 8 9 9 9 9 9 10 12 13 15
11 12 12 12 13 13 13 13 13 14 14 14 12 12 12 12 11 11 11 11 10 11 12 14 14 14 15 15 16 16 17 17 18 18 19 19 19 19 20 20 19 18 18 20 21 22 22 22 21 20 17 12 10 9 8 7 7 8 8 8 8 9 10 9 9 10 11 13 16
11 11 12 12 12 13 13 13 13 13 12 12 12 12 12 11 11 12 12 11 11 11 12 13 15 15 15 16 16 17 18 18 17 17 18 18 18 19 19 19 18 18 18 19 20 21 21 21 21 20 18 13 11 10 9 8 8 8 8 8 8 9 10 10 10 10 11 13 15
11 11 12 12 12 12 13 13 13 13 12 11 12 11 11 11 11 12 12 12 12 12 12 13 15 16 16 16 16 16 17 18 17 17 17 17 17 18 18 17 17 17 16 17 18 20 21 21 21 22 21 17 14 11 10 9 9 9 9 8 8 9 10 11 11 11 12 13 13
Wind_Direction
359 357 355 355 355 353 349 343 341 342 342 341 339 337 336 336 335 335 336 339 340 338 337 335 333 333 334 336 339 340 340 340 339 338 336 334 332 330 328 327 323 318 311 304 297 289 282 276 270 266 263 263 265 266 265 263 267 271 274 274 272 270 271 273 274 272 267 260 254
347 342 341 343 349 352 352 350 348 347 346 345 342 339 337 338 338 339 339 340 342 341 340 338 336 337 337 339 342 342 343 341 340 338 337 335 333 332 331 330 329 326 322 315 309 303 295 287 279 273 269 266 264 264 264 262 263 266 268 268 267 271 275 278 278 276 272 265 262
345 342 340 343 350 355 357 354 351 347 345 344 345 345 344 343 344 344 343 343 343 344 345 343 341 340 340 341 343 343 343 341 339 337 335 333 331 331 330 330 328 327 325 322 317 311 303 296 289 282 276 273 269 268 267 267 264 263 262 262 265 271 277 277 275 273 271 270 274
351 348 345 344 348 351 352 352 349 348 348 350 350 350 351 349 349 347 345 343 345 347 346 343 340 340 341 342 341 340 339 337 335 333 331 328 327 327 327 327 326 324 323 321 319 315 310 305 298 290 283 279 276 274 272 270 267 264 263 262 268 273 274 271 269 269 272 277 281
355 353 350 347 346 346 348 351 352 352 353 356 358 358 356 352 351 349 349 350 349 345 340 337 339 340 340 340 339 337 335 333 330 328 326 323 322 322 322 322 320 319 318 317 316 315 314 313 309 300 292 285 281 277 274 273 270 268 266 268 269 269 268 268 268 271 274 278 278
355 354 354 354 350 350 352 356 357 357 358 1 2 359 356 353 352 351 350 347 342 338 336 336 338 339 339 339 338 336 333 330 328 325 323 320 319 318 317 315 314 314 313 313 312 311 312 313 311 307 302 296 290 285 282 280 277 274 272 270 266 264 262 260 259 260 262 264 267
354 356 357 357 357 358 359 0 2 2 3 4 1 357 353 349 349 347 345 342 340 339 339 339 340 339 339 339 337 334 332 330 327 324 322 319 318 316 314 312 311 310 309 308 308 308 308 308 307 304 302 301 299 296 296 295 294 291 287 282 276 271 265 260 258 255 254 255 258
353 356 358 358 0 3 4 4 4 4 4 3 358 353 350 347 347 345 343 342 341 340 339 339 339 338 337 337 336 334 331 329 327 325 323 320 317 315 313 311 310 308 307 306 305 305 304 304 302 301 299 299 298 299 300 301 300 298 295 292 289 285 277 271 268 265 261 259 258
354 354 356 359 2 5 6 5 5 3 2 358 354 350 348 347 346 345 344 343 340 339 339 339 338 337 337 336 335 333 331 329 327 324 322 320 318 316 314 313 311 309 308 306 305 304 303 302 299 298 297 296 295 295 296 297 297 296 296 294 294 292 290 287 284 281 276 272 269
353 354 357 1 2 4 5 4 2 1 359 356 352 350 348 347 346 344 343 341 341 341 341 339 338 337 337 335 333 332 329 327 324 322 320 319 317 316 315 314 312 311 309 308 306 305 303 301 298 296 295 293 293 293 293 294 294 294 293 293 293 294 293 293 292 291 289 286 283
353 355 359 2 2 3 4 3 -0 359 358 355 352 350 348 346 344 342 341 342 342 340 338 336 336 335 334 332 330 328 325 323 321 319 318 317 316 315 314 313 312 311 310 309 308 306 304 302 299 297 295 293 293 292 292 292 291 290 290 290 291 292 292 292 293 293 292 291 290
354 356 360 2 2 3 4 3 359 357 356 354 351 349 347 344 342 340 340 342 340 337 334 333 333 332 330 328 326 323 321 319 317 316 315 314 314 313 313 312 311 310 309 309 308 307 305 303 300 298 296 294 293 293 292 291 290 289 289 289 289 289 290 290 291 291 291 291 291
355 358 -0 1 3 4 4 2 358 356 355 353 350 347 345 341 339 339 339 339 336 333 331 330 329 328 326 323 321 320 318 316 314 313 312 312 312 312 311 311 310 310 309 308 308 307 305 304 302 300 299 297 296 294 292 291 290 289 288 288 288 287 287 288 289 289 290 290 290
356 358 -0 1 3 4 3 1 358 355 353 350 347 344 342 339 338 338 338 336 333 330 328 328 327 325 323 321 318 316 315 313 312 311 310 310 310 310 310 310 309 309 308 308 307 307 306 305 304 303 302 300 298 296 294 292 291 290 289 288 288 287 287 288 288 289 290 290 290
356 357 359 1 3 4 3 360 356 354 351 348 345 343 341 339 338 337 336 333 331 329 328 328 326 324 322 320 317 315 314 312 312 311 311 310 310 311 310 309 309 308 308 307 307 307 306 306 306 305 304 303 301 299 298 296 294 293 291 290 289 289 289 289 290 291 292 292 293
356 357 359 2 3 3 1 359 355 352 349 346 343 342 340 339 337 336 335 332 330 329 328 327 325 323 322 320 318 317 315 314 314 314 314 313 313 312 311 310 310 309 309 308 308 308 308 307 307 306 305 304 303 303 303 302 301 299 298 296 295 294 294 294 295 295 295 295 295
356 357 359 2 3 2 360 357 354 351 348 344 343 341 340 338 337 335 334 332 330 329 327 326 324 323 322 321 320 319 318 318 318 317 317 316 315 314 313 312 311 311 311 311 311 310 310 309 308 307 307 306 307 307 308 309 309 309 308 307 305 304 302 301 301 301 300 300 298
358 359 1 2 2 1 358 355 352 350 347 344 342 341 340 339 337 335 333 332 331 329 327 325 325 324 322 322 321 321 321 320 320 319 318 317 316 315 314 314 313 313 313 313 312 312 311 310 310 310 311 311 312 313 314 315 315 315 314 313 311 309 308 307 306 305 305 303 302
-0 1 2 2 1 359 357 354 351 348 346 344 342 341 340 338 337 335 333 332 331 329 328 326 325 324 323 323 322 322 322 321 320 320 319 319 318 317 317 316 316 316 315 315 314 313 312 312 313 314 316 318 319 319 319 318 317 316 314 312 311 309 308 307 306 305 304 303 301
2 2 2 1 1 358 356 353 350 347 345 343 342 341 339 338 337 335 334 332 331 330 328 327 326 325 325 324 324 323 323 322 322 321 321 321 320 320 319 319 318 318 317 316 315 315 314 315 317 320 322 323 322 321 320 318 316 314 312 310 308 306 305 304 303 302 301 299 298
3 2 1 0 -0 357 354 351 349 346 345 343 342 340 339 337 336 335 333 331 331 330 329 328 326 326 325 325 324 324 323 322 322 322 321 321 321 320 320 320 320 319 319 318 318 318 318 320 323 324 325 324 323 321 319 318 316 314 311 309 307 305 303 301 301 300 299 298 296
3 2 0 360 359 356 352 349 347 345 344 342 341 339 337 336 335 333 332 331 330 330 329 328 327 326 325 325 323 323 322 321 321 321 320 320 320 320 321 321 320 320 320 320 320 321 322 324 325 325 325 323 321 319 318 316 315 313 311 308 306 304 302 300 299 299 298 296 295
3 2 1 359 357 353 350 348 346 344 342 341 339 337 336 334 333 331 331 330 330 329 328 327 326 325 324 322 322 321 320 320 319 319 319 319 319 320 321 321 321 321 321 321 321 322 324 325 325 324 323 321 319 318 317 315 314 312 310 308 306 304 303 301 300 299 298 297 296
3 2 -0 357 354 351 348 346 344 342 340 338 336 335 333 332 331 330 330 329 328 328 327 326 325 324 322 320 320 319 319 318 318 318 318 318 319 319 320 321 320 320 320 320 321 322 323 323 323 322 321 320 318 317 316 315 313 311 309 308 306 305 304 304 303 302 301 300 299
2 1 358 355 351 348 346 343 341 339 337 334 333 332 331 330 330 329 328 328 327 327 326 325 323 322 321 320 319 318 317 317 316 316 316 317 317 318 319 319 319 319 319 318 318 319 319 320 319 319 319 318 317 316 315 314 312 311 309 307 307 307 307 307 307 306 305 304 304
1 358 355 351 347 344 342 339 336 334 332 331 330 330 329 328 328 327 327 326 326 326 325 324 323 322 320 319 318 317 317 316 315 315 315 315 316 316 317 316 317 316 316 315 316 317 317 317 316 315 315 315 316 316 315 314 312 311 309 308 309 309 310 311 311 311 310 309 309
359 355 350 346 343 340 337 334 332 331 330 329 328 328 327 326 326 325 325 324 325 325 324 324 322 321 320 318 317 317 316 315 314 314 313 313 314 314 314 313 314 313 313 313 313 313 314 314 313 313 313 313 314 315 314 313 313 312 311 311 312 312 312 312 313 313 313 313 312
355 350 345 341 338 335 332 331 330 329 328 327 326 325 324 324 323 323 323 323 324 324 324 323 322 320 319 318 316 315 315 314 314 314 313 313 312 312 311 311 311 310 310 310 310 310 310 310 309 310 311 312 312 313 313 312 312 313 313 313 313 313 313 312 313 313 314 313 312
350 345 341 338 334 332 330 329 328 327 326 325 324 323 323 322 322 322 322 323 324 324 323 321 320 319 317 316 314 314 314 314 314 315 314 313 312 311 310 310 309 308 308 308 308 307 307 306 306 307 308 310 310 311 312 312 312 312 312 313 313 313 313 313 313 313 313 312 312
346 341 337 334 331 329 328 327 326 325 324 323 323 322 321 321 321 322 323 323 322 321 320 318 317 315 314 313 313 313 315 316 316 316 314 313 312 311 310 309 309 308 307 307 306 305 305 304 304 305 305 307 308 308 308 309 309 309 310 311 311 312 313 313 313 313 313 312 311
342 337 334 331 329 327 326 325 324 323 323 322 322 321 321 321 321 321 321 321 319 318 316 315 314 313 312 312 313 314 315 316 316 315 314 313 311 311 310 309 308 307 306 306 305 304 303 303 303 303 303 305 306 306 305 305 305 306 308 309 311 312 313 313 313 312 312 311 311
338 334 331 328 326 325 324 323 323 322 322 321 321 321 320 320 320 320 319 318 317 316 316 315 314 313 313 314 315 316 317 317 316 315 313 312 311 310 309 308 307 306 305 305 304 303 302 302 301 301 301 303 303 302 301 300 302 304 306 308 309 310 311 311 311 311 311 310 310
333 330 328 326 324 323 322 322 322 322 321 321 321 321 321 320 320 319 318 318 317 316 315 314 314 314 315 316 317 317 316 315 314 313 312 311 310 309 308 308 307 306 305 304 303 302 301 300 299 299 300 302 301 300 299 299 302 305 307 308 308 308 308 308 308 308 309 310 310
330 327 325 324 322 322 321 322 322 322 322 321 321 322 322 321 320 319 318 317 316 315 314 313 313 314 314 316 316 315 314 313 313 312 312 311 310 309 308 308 306 305 305 303 302 301 300 299 298 298 298 300 300 299 298 300 302 305 307 307 307 307 307 306 306 307 309 310 310
326 325 324 322 322 321 321 321 322 322 322 322 322 322 322 320 319 318 317 315 314 313 313 313 313 313 314 314 313 313 312 312 312 312 312 311 311 310 308 307 305 304 303 302 301 300 299 298 297 297 298 299 299 299 300 302 304 305 306 307 307 306 306 306 307 309 310 311 311
324 323 322 322 321 321 321 322 322 323 323 323 322 322 321 319 318 316 315 314 314 314 314 314 314 314 314 313 312 312 312 311 311 311 311 311 310 309 308 306 305 304 303 302 300 300 299 298 297 297 298 299 299 301 303 304 306 307 308 308 307 307 308 309 311 312 312 312 311
323 322 322 321 321 321 321 322 322 322 322 322 321 320 319 318 317 316 316 316 316 315 315 315 315 314 313 312 311 311 311 311 311 311 311 310 310 308 307 306 305 304 303 302 300 300 299 299 299 299 300 301 302 304 306 307 308 309 310 310 309 310 311 313 314 314 313 311 309
323 322 321 321 320 320 320 321 322 321 321 320 319 318 317 316 316 316 316 317 317 316 315 315 314 313 312 311 310 310 310 311 310 310 309 309 308 307 307 306 305 304 303 302 301 301 302 302 303 304 305 305 307 309 310 311 312 312 313 314 313 315 316 317 316 314 312 310 307
322 321 320 320 319 319 319 320 320 319 318 317 316 316 316 316 316 316 316 317 316 314 314 313 312 311 311 312 311 311 311 310 310 309 308 307 307 307 307 306 305 305 304 304 304 305 307 308 310 311 313 312 314 315 316 316 316 316 317 319 319 319 318 318 316 314 312 310 308
320 319 319 318 318 317 318 318 317 317 316 315 315 315 315 315 315 315 315 315 314 313 312 311 311 311 312 313 312 311 310 309 309 308 307 307 307 307 308 307 307 307 307 307 309 312 314 317 319 322 324 323 324 324 323 321 321 322 323 324 323 321 319 318 317 315 313 311 310
318 318 317 316 316 316 316 315 314 314 313 313 313 313 313 314 314 315 315 314 313 312 312 311 311 311 312 312 311 309 309 308 308 307 307 307 308 309 310 310 309 309 310 312 316 319 323 326 328 331 334 334 333 331 328 326 325 325 326 326 324 322 320 319 318 316 315 313 311